When you browse on this site, cookies collect data to enhance your experience and personalize the content and advertising you see.
Visit our Privacy Policy to learn more. By continuing to use the site, you agree to this use of cookies and data.
  • In Spain
  • List of Countries
  • For 7 days
  • Water Temperature
  • Satellite Maps
  • Weather Map
  • Weather Widgets
  • user-avatar
    Login

    Hourly Weather Rawson

    Today, 14 December, Friday

    Time Temperature Precipitation Wind Pressure Humidity
    00:00 +17°C° 0 mm 4 mps 750 mmHg 78%
    01:00 +17°C° 0 mm 4 mps 750 mmHg 77%
    02:00 +17°C° 0 mm 4 mps 751 mmHg 76%
    03:00 +17°C° 0.2 mm 5 mps 751 mmHg 68%
    04:00 +17°C° 0.2 mm 7 mps 751 mmHg 59%
    05:00 +17°C° 0.2 mm 8 mps 752 mmHg 50%
    06:00 +18°C° 0.4 mm 8 mps 752 mmHg 45%
    07:00 +18°C° 0.4 mm 9 mps 753 mmHg 39%
    08:00 +19°C° 0.4 mm 9 mps 753 mmHg 34%
    09:00 +21°C° 0 mm 9 mps 754 mmHg 31%
    10:00 +22°C° 0 mm 9 mps 754 mmHg 28%
    11:00 +23°C° 0 mm 9 mps 754 mmHg 25%
    12:00 +24°C° 0 mm 9 mps 754 mmHg 23%
    13:00 +24°C° 0 mm 8 mps 754 mmHg 20%
    14:00 +26°C° 0 mm 8 mps 755 mmHg 18%
    15:00 +26°C° 0 mm 7 mps 755 mmHg 16%
    16:00 +26°C° 0 mm 7 mps 755 mmHg 15%
    17:00 +26°C° 0 mm 6 mps 755 mmHg 13%
    18:00 +25°C° 0 mm 5 mps 755 mmHg 17%
    19:00 +23°C° 0 mm 4 mps 755 mmHg 22%
    20:00 +22°C° 0 mm 4 mps 756 mmHg 26%
    21:00 +21°C° 0 mm 4 mps 756 mmHg 31%
    22:00 +20°C° 0 mm 4 mps 757 mmHg 36%
    23:00 +20°C° 0 mm 4 mps 758 mmHg 41%

    Tomorrow, 15 December, Saturday

    Time Temperature Precipitation Wind Pressure Humidity
    00:00 +19°C° 0 mm 5 mps 758 mmHg 39%
    01:00 +19°C° 0 mm 6 mps 757 mmHg 37%
    02:00 +18°C° 0 mm 7 mps 757 mmHg 34%
    03:00 +17°C° 0 mm 7 mps 757 mmHg 36%
    04:00 +17°C° 0 mm 7 mps 757 mmHg 37%
    05:00 +16°C° 0 mm 7 mps 757 mmHg 39%
    06:00 +17°C° 0 mm 7 mps 757 mmHg 36%
    07:00 +18°C° 0 mm 7 mps 757 mmHg 34%
    08:00 +21°C° 0 mm 7 mps 757 mmHg 32%
    09:00 +22°C° 0 mm 7 mps 756 mmHg 29%
    10:00 +24°C° 0 mm 7 mps 756 mmHg 27%
    11:00 +27°C° 0 mm 6 mps 756 mmHg 24%
    12:00 +28°C° 0 mm 7 mps 755 mmHg 23%
    13:00 +29°C° 0 mm 7 mps 754 mmHg 21%
    14:00 +32°C° 0 mm 7 mps 753 mmHg 19%
    15:00 +32°C° 0 mm 7 mps 752 mmHg 19%
    16:00 +32°C° 0 mm 7 mps 752 mmHg 19%
    17:00 +33°C° 0 mm 8 mps 751 mmHg 19%
    18:00 +32°C° 0 mm 7 mps 751 mmHg 20%
    19:00 +30°C° 0 mm 6 mps 750 mmHg 22%
    20:00 +30°C° 0 mm 6 mps 750 mmHg 24%
    21:00 +29°C° 0 mm 5 mps 750 mmHg 26%
    22:00 +28°C° 0 mm 5 mps 750 mmHg 29%
    23:00 +28°C° 0 mm 4 mps 750 mmHg 31%

    Day after tomorrow, 16 December, Sunday

    Time Temperature Precipitation Wind Pressure Humidity
    00:00 +27°C° 0 mm 5 mps 749 mmHg 32%
    01:00 +26°C° 0 mm 6 mps 749 mmHg 34%
    02:00 +26°C° 0 mm 7 mps 749 mmHg 35%
    03:00 +24°C° 0 mm 7 mps 749 mmHg 36%
    04:00 +24°C° 0 mm 7 mps 749 mmHg 38%
    05:00 +23°C° 0 mm 7 mps 750 mmHg 39%
    06:00 +23°C° 0 mm 9 mps 750 mmHg 37%
    07:00 +23°C° 0 mm 10 mps 751 mmHg 35%
    08:00 +23°C° 0 mm 12 mps 752 mmHg 34%
    09:00 +23°C° 0 mm 12 mps 753 mmHg 30%
    10:00 +22°C° 0 mm 12 mps 754 mmHg 27%
    11:00 +22°C° 0 mm 11 mps 754 mmHg 24%
    12:00 +23°C° 0 mm 11 mps 755 mmHg 22%
    13:00 +23°C° 0 mm 10 mps 755 mmHg 20%
    14:00 +23°C° 0 mm 9 mps 756 mmHg 18%
    15:00 +22°C° 0 mm 9 mps 756 mmHg 20%
    16:00 +22°C° 0 mm 9 mps 757 mmHg 21%
    17:00 +21°C° 0 mm 9 mps 757 mmHg 22%
    18:00 +20°C° 0 mm 8 mps 758 mmHg 28%
    19:00 +17°C° 0 mm 7 mps 758 mmHg 33%
    20:00 +15°C° 0 mm 6 mps 759 mmHg 38%
    21:00 +15°C° 0 mm 5 mps 760 mmHg 39%
    22:00 +15°C° 0 mm 5 mps 760 mmHg 40%
    23:00 +15°C° 0 mm 4 mps 761 mmHg 41%

    17 December, Monday

    Time Temperature Precipitation Wind Pressure Humidity
    00:00 +15°C° 0 mm 5 mps 761 mmHg 43%
    01:00 +15°C° 0 mm 5 mps 762 mmHg 45%
    02:00 +14°C° 0 mm 5 mps 762 mmHg 47%
    03:00 +14°C° 0 mm 6 mps 762 mmHg 50%
    04:00 +14°C° 0 mm 6 mps 762 mmHg 53%
    05:00 +14°C° 0 mm 6 mps 763 mmHg 56%
    06:00 +16°C° 0 mm 6 mps 763 mmHg 48%
    07:00 +17°C° 0 mm 6 mps 763 mmHg 40%
    08:00 +20°C° 0 mm 6 mps 763 mmHg 32%
    09:00 +21°C° 0 mm 6 mps 763 mmHg 28%
    10:00 +22°C° 0 mm 6 mps 762 mmHg 23%
    11:00 +24°C° 0 mm 6 mps 762 mmHg 19%
    12:00 +26°C° 0 mm 6 mps 761 mmHg 17%
    13:00 +26°C° 0 mm 6 mps 761 mmHg 15%
    14:00 +27°C° 0 mm 6 mps 760 mmHg 13%
    15:00 +28°C° 0 mm 6 mps 759 mmHg 13%
    16:00 +28°C° 0 mm 6 mps 759 mmHg 13%
    17:00 +29°C° 0 mm 5 mps 758 mmHg 14%
    18:00 +28°C° 0 mm 6 mps 758 mmHg 17%
    19:00 +27°C° 0 mm 6 mps 758 mmHg 20%
    20:00 +26°C° 0 mm 6 mps 757 mmHg 23%
    21:00 +24°C° 0 mm 6 mps 758 mmHg 28%
    22:00 +23°C° 0 mm 5 mps 758 mmHg 32%
    23:00 +22°C° 0 mm 4 mps 758 mmHg 37%

    18 December, Tuesday

    Time Temperature Precipitation Wind Pressure Humidity
    00:00 +22°C° 0 mm 4 mps 757 mmHg 37%
    01:00 +22°C° 0 mm 4 mps 757 mmHg 36%
    02:00 +21°C° 0 mm 4 mps 757 mmHg 36%
    03:00 +21°C° 0 mm 4 mps 757 mmHg 37%
    04:00 +20°C° 0 mm 4 mps 757 mmHg 38%
    05:00 +19°C° 0 mm 4 mps 757 mmHg 39%
    06:00 +21°C° 0 mm 4 mps 757 mmHg 33%
    07:00 +22°C° 0 mm 4 mps 757 mmHg 28%
    08:00 +25°C° 0 mm 5 mps 757 mmHg 23%
    09:00 +26°C° 0 mm 4 mps 757 mmHg 21%
    10:00 +27°C° 0 mm 4 mps 757 mmHg 19%
    11:00 +28°C° 0 mm 4 mps 756 mmHg 17%
    12:00 +29°C° 0 mm 4 mps 756 mmHg 17%
    13:00 +30°C° 0 mm 5 mps 755 mmHg 17%
    14:00 +32°C° 0 mm 5 mps 754 mmHg 16%
    15:00 +33°C° 0 mm 5 mps 754 mmHg 17%
    16:00 +33°C° 0 mm 5 mps 753 mmHg 17%
    17:00 +34°C° 0 mm 6 mps 752 mmHg 18%
    18:00 +34°C° 0 mm 6 mps 752 mmHg 19%
    19:00 +33°C° 0 mm 6 mps 751 mmHg 21%
    20:00 +33°C° 0 mm 6 mps 751 mmHg 22%
    21:00 +32°C° 0 mm 7 mps 751 mmHg 24%
    22:00 +30°C° 0 mm 7 mps 751 mmHg 26%
    23:00 +29°C° 0 mm 8 mps 751 mmHg 29%

    19 December, Wednesday

    Time Temperature Precipitation Wind Pressure Humidity
    00:00 +28°C° 0 mm 8 mps 751 mmHg 31%
    01:00 +27°C° 0 mm 8 mps 751 mmHg 33%
    02:00 +26°C° 0 mm 8 mps 751 mmHg 35%
    03:00 +24°C° 0 mm 8 mps 751 mmHg 39%
    04:00 +23°C° 0 mm 8 mps 751 mmHg 42%
    05:00 +22°C° 0 mm 8 mps 751 mmHg 45%
    06:00 +23°C° 0 mm 8 mps 752 mmHg 44%
    07:00 +23°C° 0 mm 8 mps 752 mmHg 42%
    08:00 +24°C° 0 mm 8 mps 752 mmHg 40%
    09:00 +26°C° 0 mm 7 mps 752 mmHg 37%
    10:00 +26°C° 0 mm 7 mps 752 mmHg 33%
    11:00 +27°C° 0 mm 6 mps 752 mmHg 30%
    12:00 +26°C° 0.1 mm 6 mps 753 mmHg 35%
    13:00 +23°C° 0.1 mm 6 mps 753 mmHg 39%
    14:00 +22°C° 0.1 mm 5 mps 753 mmHg 44%
    15:00 +21°C° 0.7 mm 7 mps 754 mmHg 52%
    16:00 +18°C° 0.7 mm 8 mps 755 mmHg 61%
    17:00 +17°C° 0.7 mm 10 mps 756 mmHg 70%
    18:00 +16°C° 0.1 mm 10 mps 757 mmHg 70%
    19:00 +15°C° 0.1 mm 9 mps 758 mmHg 70%
    20:00 +13°C° 0.1 mm 9 mps 759 mmHg 71%
    21:00 +13°C° 0 mm 8 mps 759 mmHg 69%
    22:00 +14°C° 0 mm 7 mps 760 mmHg 67%
    23:00 +14°C° 0 mm 6 mps 761 mmHg 65%
    Show more